WJA019 CYVR-CYEG

Flight info

Callsign WJA019
Flight time N/A
Altitude 37000
Route VIDRI Q949 ELLKS ELLKS3
Aircraft B738/M-SDE2E3FGHIRWXY/LB1

Departure

Time 2026-05-05 21:23
Airport Vancouver International Airport (CYVR)

Arrival

Time N/A
Airport Edmonton International Airport (CYEG)
Time Latitude Longitude Altitude Speed Heading
2026-05-05 20:46 49.19173 -123.18158 24 ft 0 kts
2026-05-05 21:09 49.19167 -123.18160 24 ft 2 kts
2026-05-05 21:09 49.19151 -123.18164 28 ft 2 kts
2026-05-05 21:09 49.19135 -123.18168 29 ft 2 kts
2026-05-05 21:09 49.19124 -123.18171 27 ft 2 kts 14°
2026-05-05 21:10 49.19109 -123.18180 27 ft 2 kts 44°
2026-05-05 21:10 49.19101 -123.18202 28 ft 1 kts 92°
2026-05-05 21:10 49.19101 -123.18208 28 ft 0 kts 94°
2026-05-05 21:12 49.19101 -123.18207 28 ft 0 kts 94°
2026-05-05 21:13 49.19103 -123.18187 27 ft 4 kts 77°
2026-05-05 21:13 49.19107 -123.18139 27 ft 5 kts 93°
2026-05-05 21:13 49.19100 -123.18087 22 ft 5 kts 109°
2026-05-05 21:13 49.19076 -123.18048 25 ft 5 kts 151°
2026-05-05 21:14 49.19040 -123.18044 25 ft 5 kts 189°
2026-05-05 21:14 49.19004 -123.18056 24 ft 5 kts 190°
2026-05-05 21:14 49.18969 -123.18065 25 ft 5 kts 190°
2026-05-05 21:14 49.18932 -123.18078 26 ft 6 kts 203°
2026-05-05 21:15 49.18918 -123.18128 25 ft 5 kts 273°
2026-05-05 21:15 49.18926 -123.18199 26 ft 9 kts 280°
2026-05-05 21:15 49.18939 -123.18318 25 ft 13 kts 280°
2026-05-05 21:15 49.18961 -123.18449 27 ft 13 kts 300°
2026-05-05 21:16 49.19027 -123.18533 25 ft 12 kts 322°
2026-05-05 21:16 49.19094 -123.18612 25 ft 12 kts 321°
2026-05-05 21:16 49.19158 -123.18691 26 ft 12 kts 322°
2026-05-05 21:16 49.19221 -123.18765 25 ft 11 kts 322°
2026-05-05 21:17 49.19282 -123.18839 25 ft 11 kts 321°
2026-05-05 21:17 49.19342 -123.18910 26 ft 11 kts 322°
2026-05-05 21:17 49.19360 -123.19011 24 ft 10 kts 260°
2026-05-05 21:17 49.19347 -123.19110 24 ft 5 kts 259°
2026-05-05 21:18 49.19346 -123.19119 24 ft 0 kts 259°
2026-05-05 21:18 49.19340 -123.19172 24 ft 9 kts 259°
2026-05-05 21:18 49.19324 -123.19297 24 ft 15 kts 259°
2026-05-05 21:19 49.19303 -123.19469 24 ft 18 kts 259°
2026-05-05 21:19 49.19281 -123.19651 24 ft 17 kts 259°
2026-05-05 21:19 49.19259 -123.19825 24 ft 16 kts 259°
2026-05-05 21:19 49.19239 -123.19993 24 ft 16 kts 259°
2026-05-05 21:20 49.19219 -123.20155 25 ft 15 kts 259°
2026-05-05 21:20 49.19199 -123.20310 24 ft 14 kts 259°
2026-05-05 21:20 49.19153 -123.20421 25 ft 13 kts 197°
2026-05-05 21:20 49.19082 -123.20441 25 ft 6 kts 189°
2026-05-05 21:21 49.19074 -123.20443 28 ft 0 kts 189°
2026-05-05 21:21 49.19065 -123.20445 25 ft 4 kts 189°
2026-05-05 21:21 49.19020 -123.20457 25 ft 9 kts 187°
2026-05-05 21:22 49.18969 -123.20408 25 ft 9 kts 116°
2026-05-05 21:22 49.18951 -123.20259 24 ft 35 kts 99°
2026-05-05 21:22 49.18855 -123.19417 25 ft 124 kts 100°
2026-05-05 21:22 49.18660 -123.17720 62 ft 195 kts 100°
2026-05-05 21:23 49.18417 -123.15575 856 ft 212 kts 102°
2026-05-05 21:23 49.18145 -123.13369 2049 ft 209 kts 102°
2026-05-05 21:23 49.17875 -123.11102 2774 ft 231 kts 100°
2026-05-05 21:23 49.17605 -123.08505 3136 ft 259 kts 99°
2026-05-05 21:24 49.17335 -123.05719 3861 ft 270 kts 98°
2026-05-05 21:24 49.17069 -123.02847 4719 ft 276 kts 98°
2026-05-05 21:24 49.16822 -122.99921 5591 ft 279 kts 92°
2026-05-05 21:24 49.17227 -122.97034 6412 ft 282 kts 58°
2026-05-05 21:25 49.18531 -122.94843 7276 ft 280 kts 39°
2026-05-05 21:25 49.20012 -122.92884 8136 ft 282 kts 39°
2026-05-05 21:25 49.21506 -122.90913 8999 ft 284 kts 39°
2026-05-05 21:25 49.23006 -122.88925 9889 ft 286 kts 39°
2026-05-05 21:26 49.24517 -122.86911 10662 ft 290 kts 39°
2026-05-05 21:26 49.26089 -122.84806 11035 ft 310 kts 39°
2026-05-05 21:26 49.27731 -122.82595 11654 ft 318 kts 39°
2026-05-05 21:26 49.29398 -122.80339 12449 ft 321 kts 39°
2026-05-05 21:27 49.31072 -122.78065 13275 ft 323 kts 39°
2026-05-05 21:27 49.32763 -122.75762 14024 ft 327 kts 39°
2026-05-05 21:27 49.34467 -122.73437 14723 ft 329 kts 39°
2026-05-05 21:27 49.36182 -122.71094 15459 ft 331 kts 39°
2026-05-05 21:28 49.37905 -122.68738 16180 ft 333 kts 39°
2026-05-05 21:28 49.39645 -122.66355 16866 ft 337 kts 39°
2026-05-05 21:28 49.41405 -122.63944 17578 ft 340 kts 38°
2026-05-05 21:28 49.43169 -122.61523 18336 ft 341 kts 38°
2026-05-05 21:29 49.44945 -122.59081 18921 ft 345 kts 38°
2026-05-05 21:29 49.46741 -122.56612 19506 ft 347 kts 38°
2026-05-05 21:29 49.48549 -122.54123 20112 ft 350 kts 38°
2026-05-05 21:29 49.50372 -122.51613 20749 ft 352 kts 38°
2026-05-05 21:30 49.52205 -122.49085 21338 ft 356 kts 38°
2026-05-05 21:30 49.54061 -122.46523 21867 ft 360 kts 38°
2026-05-05 21:30 49.55931 -122.43938 22426 ft 363 kts 38°
2026-05-05 21:30 49.57818 -122.41328 22924 ft 366 kts 38°
2026-05-05 21:31 49.59716 -122.38695 23559 ft 367 kts 38°
2026-05-05 21:31 49.61622 -122.36050 24003 ft 371 kts 38°
2026-05-05 21:31 49.63550 -122.33374 24423 ft 374 kts 38°
2026-05-05 21:31 49.65493 -122.30675 24863 ft 377 kts 38°
2026-05-05 21:32 49.67443 -122.27961 25333 ft 379 kts 38°
2026-05-05 21:32 49.69407 -122.25225 25724 ft 383 kts 39°
2026-05-05 21:32 49.71379 -122.22471 26241 ft 382 kts 38°
2026-05-05 21:32 49.73364 -122.19700 26569 ft 388 kts 38°
2026-05-05 21:33 49.75377 -122.16887 26953 ft 392 kts 38°
2026-05-05 21:33 49.77401 -122.14055 27452 ft 392 kts 38°
2026-05-05 21:33 49.79425 -122.11216 27866 ft 395 kts 38°
2026-05-05 21:33 49.81470 -122.08348 28226 ft 398 kts 38°
2026-05-05 21:34 49.83527 -122.05461 28613 ft 400 kts 38°
2026-05-05 21:34 49.85594 -122.02555 28969 ft 403 kts 38°
2026-05-05 21:34 49.87682 -121.99615 29310 ft 405 kts 38°
2026-05-05 21:34 49.89773 -121.96665 29734 ft 407 kts 38°
2026-05-05 21:35 49.91879 -121.93693 30028 ft 411 kts 38°
2026-05-05 21:35 49.94001 -121.90695 30335 ft 414 kts 38°
2026-05-05 21:35 49.96132 -121.87680 30648 ft 414 kts 38°
2026-05-05 21:35 49.98267 -121.84654 30953 ft 415 kts 38°
2026-05-05 21:36 50.00404 -121.81620 31243 ft 416 kts 38°
2026-05-05 21:36 50.02548 -121.78575 31585 ft 418 kts 38°
2026-05-05 21:36 50.04701 -121.75513 31866 ft 420 kts 38°
2026-05-05 21:36 50.06861 -121.72437 32175 ft 422 kts 38°
2026-05-05 21:37 50.09032 -121.69342 32408 ft 424 kts 38°
2026-05-05 21:37 50.11212 -121.66229 32648 ft 426 kts 38°
2026-05-05 21:37 50.13398 -121.63104 32905 ft 428 kts 38°
2026-05-05 21:37 50.15596 -121.59957 33190 ft 429 kts 38°
2026-05-05 21:38 50.17798 -121.56801 33443 ft 431 kts 38°
2026-05-05 21:38 50.20004 -121.53635 33728 ft 431 kts 38°
2026-05-05 21:38 50.22205 -121.50450 33968 ft 433 kts 39°
2026-05-05 21:38 50.24233 -121.46925 34176 ft 439 kts 46°
2026-05-05 21:39 50.26145 -121.43194 34403 ft 440 kts 46°
2026-05-05 21:39 50.28037 -121.39413 34607 ft 441 kts 47°
2026-05-05 21:39 50.29924 -121.35617 34807 ft 442 kts 47°
2026-05-05 21:39 50.31817 -121.31816 35000 ft 443 kts 46°
2026-05-05 21:40 50.33718 -121.28011 35204 ft 443 kts 46°
2026-05-05 21:40 50.35628 -121.24201 35421 ft 443 kts 46°
2026-05-05 21:40 50.37530 -121.20412 35678 ft 442 kts 46°
2026-05-05 21:40 50.39432 -121.16624 35927 ft 441 kts 46°
2026-05-05 21:41 50.41327 -121.12849 36215 ft 439 kts 46°
2026-05-05 21:41 50.43211 -121.09092 36451 ft 438 kts 46°
2026-05-05 21:41 50.45096 -121.05330 36692 ft 437 kts 46°
2026-05-05 21:41 50.46968 -121.01586 36873 ft 435 kts 46°
2026-05-05 21:42 50.50690 -120.94129 36957 ft 435 kts 45°
2026-05-05 21:42 50.54448 -120.86588 36961 ft 440 kts 45°
2026-05-05 21:43 50.57607 -120.80224 36955 ft 440 kts 46°
2026-05-05 21:43 50.61376 -120.72607 36952 ft 441 kts 46°
2026-05-05 21:44 50.65136 -120.64983 36945 ft 440 kts 46°
2026-05-05 21:44 50.68882 -120.57368 36949 ft 439 kts 46°
2026-05-05 21:45 50.72615 -120.49759 36939 ft 438 kts 46°
2026-05-05 21:45 50.76329 -120.42164 36943 ft 436 kts 45°
2026-05-05 21:46 50.80022 -120.34593 36957 ft 434 kts 45°
2026-05-05 21:46 50.83704 -120.27023 36965 ft 434 kts 45°
2026-05-05 21:47 50.87378 -120.19449 36960 ft 433 kts 45°
2026-05-05 21:47 50.91042 -120.11871 36967 ft 433 kts 45°
2026-05-05 21:48 50.94706 -120.04272 36970 ft 433 kts 45°
2026-05-05 21:48 50.98352 -119.96683 36988 ft 431 kts 45°
2026-05-05 21:49 51.01991 -119.89093 36970 ft 432 kts 45°
2026-05-05 21:49 51.05621 -119.81500 36988 ft 432 kts 46°
2026-05-05 21:50 51.09254 -119.73876 36972 ft 431 kts 45°
2026-05-05 21:50 51.12868 -119.66269 36983 ft 431 kts 46°
2026-05-05 21:51 51.16479 -119.58647 36985 ft 431 kts 46°
2026-05-05 21:51 51.20082 -119.51019 36993 ft 431 kts 46°
2026-05-05 21:52 51.25489 -119.39531 36986 ft 432 kts 46°
2026-05-05 21:53 51.29090 -119.31851 37002 ft 432 kts 46°
2026-05-05 21:53 51.32693 -119.24144 36997 ft 432 kts 46°
2026-05-05 21:54 51.36283 -119.16438 37011 ft 431 kts 46°
2026-05-05 21:54 51.39859 -119.08741 37002 ft 430 kts 46°
2026-05-05 21:55 51.43422 -119.01050 37018 ft 429 kts 46°
2026-05-05 21:55 51.46972 -118.93367 37015 ft 428 kts 46°
2026-05-05 21:56 51.50508 -118.85690 37024 ft 426 kts 45°
2026-05-05 21:56 51.54025 -118.78033 37032 ft 425 kts 46°